Location: Cheadle
(51.0146°N, 113.5417°W)
Time: 15:12:05
(UTC+00:00)

BlueWalker 3 - Pass Details

Date: 24 April 2024
Orbit: 482 x 494 km, 53.2° (Epoch: 19 May)

Event Time Altitude Azimuth Distance (km) Brightness Sun altitude
Rises 05:37:12 0° 284° (WNW) 2,582 6.2 -21.2°
Reaches altitude 10° 05:39:23 10° 287° (WNW) 1,700 5.2 -21.4°
Maximum altitude 05:43:13 69° 11° (N) 539 2.1 -21.7°
Enters shadow 05:43:44 59° 60° (ENE) 582 2.1 -21.7°
